GW7081 Weather Reports


time (UTC)temp
C
wind
direction
speed
KPH
gust
KPH
rain 1hr
cm
rain 24hr
cm
rain mn
cm
humidity
%
barometer
mb
20260503223012 31 279 3.2 11.3 0.00 0.00 0.00 31 1009.7
20260503221516 31 293 1.6 14.5 0.00 0.00 0.00 32 1009.9
20260503220020 31 297 3.2 8.0 0.00 0.00 0.00 32 1010.0
20260503214503 31 279 3.2 8.0 0.00 0.00 0.00 33 1010.3
20260503213016 31 293 1.6 8.0 0.00 0.00 0.00 34 1010.4
20260503211518 31 283 3.2 11.3 0.00 0.00 0.00 36 1010.5
20260503210017 31 296 1.6 8.0 0.00 0.00 0.00 36 1010.7
20260503204524 30 4 1.6 6.4 0.00 0.00 0.00 37 1011.0
20260503203008 30 307 3.2 6.4 0.00 0.00 0.00 38 1011.2
20260503201511 30 279 1.6 8.0 0.00 0.00 0.00 41 1011.5
20260503200018 28 298 3.2 6.4 0.00 0.00 0.00 43 1011.7
20260503194522 28 221 1.6 8.0 0.00 0.00 0.00 41 1011.9
20260503193034 28 329 1.6 8.0 0.00 0.00 0.00 43 1012.0
20260503191506 28 321 1.6 6.4 0.00 0.00 0.00 44 1012.2
20260503190023 27 245 1.6 12.9 0.00 0.00 0.00 45 1012.4
20260503184518 27 46 1.6 9.7 0.00 0.00 0.00 44 1012.5
20260503183022 26 46 1.6 6.4 0.00 0.00 0.00 44 1012.6
20260503181525 26 3 1.6 8.0 0.00 0.00 0.00 45 1012.8
20260503180012 25 158 1.6 8.0 0.00 0.00 0.00 45 1012.9
20260503174513 25 17 1.6 6.4 0.00 0.00 0.00 46 1012.9
20260503173021 25 46 1.6 6.4 0.00 0.00 0.00 46 1013.1
20260503171522 24 2 1.6 6.4 0.00 0.00 0.00 46 1013.1
20260503081538 10 232 0.0 0.0 0.00 0.00 0.00 91 1014.3
20260503071531 11 232 0.0 0.0 0.00 0.00 0.00 89 1014.0
20260503054520 12 229 0.0 3.2 0.00 0.00 0.00 84 1014.2
20260503053007 13 220 0.0 1.6 0.00 0.00 0.00 84 1014.0
20260503051514 13 220 0.0 0.0 0.00 0.00 0.00 83 1014.0
20260503050018 13 201 0.0 4.8 0.00 0.00 0.00 82 1013.7
20260503044522 13 103 0.0 0.0 0.00 0.00 0.00 81 1013.8
20260503043007 14 103 0.0 0.0 0.00 0.00 0.00 80 1013.6
20260503041508 15 103 0.0 0.0 0.00 0.00 0.00 79 1013.5
20260503040021 15 101 0.0 1.6 0.00 0.00 0.00 76 1013.3
20260503034520 16 101 0.0 1.6 0.00 0.00 0.00 75 1013.0
20260503033027 17 101 0.0 1.6 0.00 0.00 0.00 72 1012.7
20260503031506 18 101 0.0 0.0 0.00 0.00 0.00 68 1012.4
20260503030012 19 101 0.0 1.6 0.00 0.00 0.00 60 1012.2
20260503024516 20 100 0.0 1.6 0.00 0.00 0.00 59 1012.2
20260503023021 21 100 0.0 1.6 0.00 0.00 0.00 55 1012.0
20260503021524 22 295 0.0 1.6 0.00 0.00 0.00 52 1012.0
20260503020008 22 268 0.0 8.0 0.00 0.00 0.00 50 1012.1
20260503014517 23 341 1.6 11.3 0.00 0.00 0.00 46 1012.1
20260503013021 23 253 1.6 6.4 0.00 0.00 0.00 48 1012.1
20260503011524 23 6 1.6 8.0 0.00 0.00 0.00 47 1012.0
20260503010027 24 278 1.6 11.3 0.00 0.00 0.00 47 1012.0
20260503004512 24 226 3.2 17.7 0.00 0.00 0.00 46 1012.1
20260503003036 25 304 3.2 11.3 0.00 0.00 0.00 45 1012.2
20260503001541 25 328 4.8 9.7 0.00 0.00 0.00 44 1012.3
20260503000027 26 274 4.8 12.9 0.00 0.00 0.00 44 1012.4
20260502234533 25 262 4.8 14.5 0.00 0.00 0.00 46 1012.5
20260502233023 25 256 1.6 14.5 0.00 0.00 0.00 46 1012.7
20260502231519 25 275 1.6 11.3 0.00 0.00 0.00 46 1012.7
20260502230031 25 348 3.2 11.3 0.00 0.00 0.00 47 1012.8
20260502224526 25 307 3.2 9.7 0.00 0.00 0.00 48 1012.9